軌道要素
The following orbital elements are taken from MPEC 2011-X12:
Epoch 2011 Nov. 15.0 TT = JDT 2455880.5 MPC
M 0.53526 (2000.0) P Q
n 0.00415653 Peri. 326.49167 -0.64045407 +0.48206536
a 38.3102762 Node 105.53852 +0.76690728 +0.44288277
e 0.9456427 Incl. 141.64471 -0.04088776 +0.75595492
P 237 H 17.7 G 0.15
From 16 observations 2011 Nov. 24-30.
|